Weather History for Kalmar, Sweden

Change the Weather History Date:

Monday, February 18, 2013

  Actual Average Record
Temperature  
Mean Temperature 32 °F -  
Max Temperature 37 °F - - ()
Min Temperature 28 °F - - ()
Degree Days  
Heating Degree Days 32    
Moisture  
Dew Point 32 °F    
Average Humidity 94    
Maximum Humidity 100    
Minimum Humidity 87    
Precipitation  
Precipitation 0.00 in - - ()
Sea Level Pressure  
Sea Level Pressure 29.97 in    
Wind  
Wind Speed 5 mph ()    
Max Wind Speed 8 mph    
Max Gust Speed -    
Visibility 4.6 miles    
Events Rain , Snow    
T = Trace of Precipitation, MM = Missing Value Source: Averaged Metar Reports

Daily Weather History Graph

Daily Weather History Graph

Search for Another Location

Airport:

Trip Planner

Search our weather history database for the weather conditions in past years. The results will help you decide how hot, cold, wet, or windy it might be!

Date:

Astronomy

Feb. 18, 2013 Rise Set
Actual Time 7:14 AM CET 5:03 PM CET
Civil Twilight 6:35 AM CET 5:42 PM CET
Nautical Twilight 5:51 AM CET 6:26 PM CET
Astronomical Twilight 5:07 AM CET 7:10 PM CET
Moon 10:02 AM CET (2/18) 2:11 AM CET (2/18)
Length of Visible Light 11h 07m
Length of Day
9h 48m
First Quarter, 56% of the Moon is Illuminated
Feb 18
First Quarter
Feb 25
Full
Mar 4
Last Quarter
Mar 11
New
Mar 19
First Quarter

Hourly Weather History & Observations

Time (CET) Temp. Windchill Dew Point Humidity Pressure Visibility Wind Dir Wind Speed Gust Speed Precip Events Conditions
12:20 AM 28.4 °F 21.2 °F 28.4 °F 100% 30.15 in 6.2 mi SSW 6.9 mph - N/A   Overcast
12:50 AM 30.2 °F 23.4 °F 28.4 °F 93% 30.15 in 6.2 mi SSW 6.9 mph - N/A   Overcast
1:20 AM 30.2 °F 23.4 °F 28.4 °F 93% 30.12 in 6.2 mi SW 6.9 mph - N/A   Overcast
1:50 AM 30.2 °F 23.4 °F 28.4 °F 93% 30.12 in 6.2 mi SW 6.9 mph - N/A   Mostly Cloudy
2:20 AM 30.2 °F 23.4 °F 28.4 °F 93% 30.12 in - SW 6.9 mph - N/A Snow Light Snow
2:50 AM 30.2 °F 23.4 °F 28.4 °F 93% 30.09 in 3.1 mi SW 6.9 mph - N/A Snow Light Snow
3:20 AM 30.2 °F 23.4 °F 30.2 °F 100% 30.09 in 3.7 mi SW 6.9 mph - N/A Rain , Snow Light Freezing Rain
3:50 AM 32.0 °F 25.6 °F 30.2 °F 93% 30.09 in 4.3 mi WSW 6.9 mph - N/A   Overcast
4:20 AM 32.0 °F 24.8 °F 30.2 °F 93% 30.06 in 5.0 mi WSW 8.1 mph - N/A Rain , Snow Light Rain
4:50 AM 32.0 °F 24.8 °F 30.2 °F 93% 30.06 in 6.2 mi WSW 8.1 mph - N/A   Overcast
5:20 AM 32.0 °F 24.8 °F 30.2 °F 93% 30.06 in 6.2 mi WSW 8.1 mph - N/A   Overcast
5:50 AM 32.0 °F 24.8 °F 30.2 °F 93% 30.04 in 6.2 mi WSW 8.1 mph - N/A   Overcast
6:20 AM 32.0 °F 25.6 °F 30.2 °F 93% 30.04 in 6.2 mi WSW 6.9 mph - N/A   Overcast
6:50 AM 32.0 °F 25.6 °F 30.2 °F 93% 30.04 in 6.2 mi WSW 6.9 mph - N/A   Overcast
7:20 AM 33.8 °F 27.7 °F 32.0 °F 93% 30.04 in 6.2 mi West 6.9 mph - N/A   Overcast
7:50 AM 32.0 °F 26.4 °F 30.2 °F 93% 30.01 in 6.2 mi WSW 5.8 mph - N/A   Mostly Cloudy
8:20 AM 33.8 °F 29.6 °F 30.2 °F 87% 30.01 in 6.2 mi WSW 4.6 mph - N/A   Overcast
8:50 AM 33.8 °F 29.6 °F 32.0 °F 93% 30.01 in 6.2 mi WSW 4.6 mph - N/A   Overcast
9:20 AM 33.8 °F 30.8 °F 32.0 °F 93% 30.01 in 6.2 mi WSW 3.5 mph - N/A   Overcast
9:50 AM 35.6 °F 31.7 °F 32.0 °F 87% 30.01 in 6.2 mi West 4.6 mph - N/A   Overcast
10:20 AM 35.6 °F 30.7 °F 32.0 °F 87% 30.01 in 6.2 mi West 5.8 mph - N/A   Overcast
10:50 AM 35.6 °F 30.7 °F 32.0 °F 87% 29.98 in 6.2 mi West 5.8 mph - N/A   Mostly Cloudy
11:20 AM 35.6 °F 29.2 °F 33.8 °F 93% 29.98 in 6.2 mi West 8.1 mph - N/A   Mostly Cloudy
11:50 AM 37.4 °F 31.4 °F 33.8 °F 87% 29.98 in 6.2 mi West 8.1 mph - N/A   Mostly Cloudy
12:20 PM 37.4 °F 32.1 °F 33.8 °F 87% 29.95 in 6.2 mi West 6.9 mph - N/A   Mostly Cloudy
12:50 PM 37.4 °F 33.8 °F 33.8 °F 87% 29.95 in 6.2 mi West 4.6 mph - N/A   Scattered Clouds
1:20 PM 37.4 °F 32.8 °F 33.8 °F 87% 29.95 in 6.2 mi WNW 5.8 mph - N/A   Scattered Clouds
1:50 PM 37.4 °F 33.8 °F 33.8 °F 87% 29.95 in 6.2 mi WNW 4.6 mph - N/A   Mostly Cloudy
2:20 PM 37.4 °F 34.9 °F 33.8 °F 87% 29.95 in 6.2 mi WNW 3.5 mph - N/A   Mostly Cloudy
2:50 PM 37.4 °F 32.8 °F 33.8 °F 87% 29.92 in 6.2 mi NW 5.8 mph - N/A   Drizzle
3:20 PM 37.4 °F 32.8 °F 35.6 °F 93% 29.92 in 6.2 mi WNW 5.8 mph - N/A   Drizzle
3:50 PM 35.6 °F 31.7 °F 33.8 °F 93% 29.92 in 5.0 mi WNW 4.6 mph - N/A Rain Light Rain
4:20 PM 35.6 °F 31.7 °F 33.8 °F 93% 29.92 in 3.7 mi NW 4.6 mph - N/A Snow Light Snow
4:50 PM 35.6 °F 32.8 °F 33.8 °F 93% 29.89 in 3.1 mi WNW 3.5 mph - N/A Snow Light Snow
5:20 PM 33.8 °F 30.8 °F 33.8 °F 100% 29.89 in 3.7 mi NW 3.5 mph - N/A Rain , Snow Light Rain
5:50 PM 33.8 °F - 32.0 °F 93% 29.89 in - WNW 2.3 mph - N/A Snow Light Snow
6:20 PM 32.0 °F - 32.0 °F 100% 29.89 in 0.9 mi Calm Calm - N/A Snow Light Snow
6:50 PM 32.0 °F - 32.0 °F 100% 29.89 in 0.7 mi Calm Calm - N/A Snow Light Snow
7:20 PM 32.0 °F - 32.0 °F 100% 29.86 in 0.8 mi Calm Calm - N/A Snow Light Snow
7:50 PM 32.0 °F - 32.0 °F 100% 29.86 in 1.1 mi Calm Calm - N/A Snow Light Snow
8:20 PM 32.0 °F - 32.0 °F 100% 29.86 in 1.2 mi Variable 2.3 mph - N/A Snow Light Snow
8:50 PM 32.0 °F - 32.0 °F 100% 29.86 in 1.4 mi Variable 2.3 mph - N/A Snow Light Snow
9:20 PM 32.0 °F 28.7 °F 32.0 °F 100% 29.86 in 1.2 mi NNE 3.5 mph - N/A Snow Light Snow
9:50 PM 32.0 °F 27.5 °F 32.0 °F 100% 29.86 in 1.0 mi NE 4.6 mph - N/A Snow Light Snow
10:20 PM 32.0 °F 27.5 °F 32.0 °F 100% 29.86 in 1.3 mi NNE 4.6 mph - N/A Snow Light Snow
10:50 PM 32.0 °F 27.5 °F 32.0 °F 100% 29.86 in 1.6 mi NNE 4.6 mph - N/A Snow Light Snow
11:20 PM 32.0 °F 26.4 °F 32.0 °F 100% 29.86 in 1.9 mi NNE 5.8 mph - N/A Snow Light Snow
11:50 PM 32.0 °F 24.8 °F 32.0 °F 100% 29.86 in - NNE 8.1 mph - N/A Snow Light Snow